Satellite: HRBE Catalog number: 37855 Epoch time: 15021.96700889 Element set: 41 Inclination: 101.7108 deg RA of node: 163.2098 deg Eccentricity: 0.0202811 Arg of perigee: 140.3128 deg Mean anomaly: 221.3120 deg Mean motion: 14.94406591 rev/day Decay rate: 9.241e-05 rev/day^2 Epoch rev: 17529 Checksum: 271
Satellite: RS-39 Catalog number: 38051 Epoch time: 14288.65876392 Element set: 41 Inclination: 051.5964 deg RA of node: 324.1908 deg Eccentricity: 0.0006422 Arg of perigee: 269.6897 deg Mean anomaly: 186.8903 deg Mean motion: 16.43533377 rev/day Decay rate: 7.0201582e-01 rev/day^2 Epoch rev: 15308 Checksum: 345
Satellite: E-STAR Catalog number: 38079 Epoch time: 15016.13455217 Element set: 214 Inclination: 069.3967 deg RA of node: 125.0648 deg Eccentricity: 0.0013168 Arg of perigee: 047.0341 deg Mean anomaly: 316.5109 deg Mean motion: 16.44007688 rev/day Decay rate: 1.7990388e-01 rev/day^2 Epoch rev: 15619 Checksum: 320
Satellite: GOLIAT Catalog number: 38085 Epoch time: 15022.47463825 Element set: 745 Inclination: 069.4264 deg RA of node: 123.5786 deg Eccentricity: 0.0146234 Arg of perigee: 030.7164 deg Mean anomaly: 093.6966 deg Mean motion: 15.75423048 rev/day Decay rate: 3.81194e-03 rev/day^2 Epoch rev: 15676 Checksum: 328
Satellite: HORYU-2 Catalog number: 38340 Epoch time: 15021.48711727 Element set: 75 Inclination: 098.2955 deg RA of node: 347.8714 deg Eccentricity: 0.0011775 Arg of perigee: 196.5497 deg Mean anomaly: 163.5328 deg Mean motion: 14.73612105 rev/day Decay rate: 1.402e-05 rev/day^2 Epoch rev: 14392 Checksum: 305
Satellite: RS-40 Catalog number: 38735 Epoch time: 15022.29412944 Element set: 969 Inclination: 082.4776 deg RA of node: 150.9424 deg Eccentricity: 0.0017504 Arg of perigee: 137.9115 deg Mean anomaly: 222.3321 deg Mean motion: 12.42566979 rev/day Decay rate: 4.0e-07 rev/day^2 Epoch rev: 11279 Checksum: 303
Satellite: PROITERES Catalog number: 38756 Epoch time: 15022.34743007 Element set: 613 Inclination: 098.2207 deg RA of node: 119.2315 deg Eccentricity: 0.0013280 Arg of perigee: 047.5789 deg Mean anomaly: 312.6528 deg Mean motion: 14.75493522 rev/day Decay rate: 9.27e-06 rev/day^2 Epoch rev: 12749 Checksum: 300
Satellite: BEESAT-3 Catalog number: 39134 Epoch time: 15022.79433274 Element set: 832 Inclination: 064.8732 deg RA of node: 161.7458 deg Eccentricity: 0.0035348 Arg of perigee: 271.6433 deg Mean anomaly: 088.1146 deg Mean motion: 15.09303060 rev/day Decay rate: 8.708e-05 rev/day^2 Epoch rev: 9673 Checksum: 308
Satellite: BEESAT-2 Catalog number: 39136 Epoch time: 15020.85641908 Element set: 803 Inclination: 064.8744 deg RA of node: 169.2776 deg Eccentricity: 0.0035870 Arg of perigee: 272.4035 deg Mean anomaly: 087.2979 deg Mean motion: 15.08103388 rev/day Decay rate: 4.922e-05 rev/day^2 Epoch rev: 9642 Checksum: 327
Satellite: LO-75 Catalog number: 39382 Epoch time: 14295.69194059 Element set: 487 Inclination: 040.4713 deg RA of node: 030.2705 deg Eccentricity: 0.0002289 Arg of perigee: 341.7175 deg Mean anomaly: 018.4586 deg Mean motion: 16.19795749 rev/day Decay rate: 7.301741e-02 rev/day^2 Epoch rev: 47082 Checksum: 345
Satellite: ZACUBE-1 Catalog number: 39417 Epoch time: 15021.97120067 Element set: 520 Inclination: 097.7491 deg RA of node: 089.8936 deg Eccentricity: 0.0060066 Arg of perigee: 251.8555 deg Mean anomaly: 107.6110 deg Mean motion: 14.79088818 rev/day Decay rate: 1.414e-05 rev/day^2 Epoch rev: 6301 Checksum: 301
Satellite: TRITON-1 Catalog number: 39427 Epoch time: 15022.18862338 Element set: 372 Inclination: 097.7360 deg RA of node: 081.4160 deg Eccentricity: 0.0115430 Arg of perigee: 272.8621 deg Mean anomaly: 085.9378 deg Mean motion: 14.66160837 rev/day Decay rate: 1.194e-05 rev/day^2 Epoch rev: 6246 Checksum: 305
Satellite: DELFIN3XT Catalog number: 39428 Epoch time: 15022.18936954 Element set: 375 Inclination: 097.7354 deg RA of node: 080.0247 deg Eccentricity: 0.0124721 Arg of perigee: 276.8307 deg Mean anomaly: 081.8720 deg Mean motion: 14.64564536 rev/day Decay rate: 2.383e-05 rev/day^2 Epoch rev: 6236 Checksum: 316
Satellite: GOMX-1 Catalog number: 39430 Epoch time: 15022.36003393 Element set: 186 Inclination: 097.7289 deg RA of node: 075.8834 deg Eccentricity: 0.0153790 Arg of perigee: 289.1288 deg Mean anomaly: 069.3312 deg Mean motion: 14.57579195 rev/day Decay rate: 1.439e-05 rev/day^2 Epoch rev: 6213 Checksum: 327
Satellite: MO-76 Catalog number: 39436 Epoch time: 15022.19197792 Element set: 474 Inclination: 097.7551 deg RA of node: 098.2630 deg Eccentricity: 0.0023036 Arg of perigee: 240.4681 deg Mean anomaly: 119.4245 deg Mean motion: 14.98857533 rev/day Decay rate: 2.0251e-04 rev/day^2 Epoch rev: 6356 Checksum: 326
Satellite: LO-74 Catalog number: 39440 Epoch time: 15022.21068499 Element set: 367 Inclination: 097.7443 deg RA of node: 086.6826 deg Eccentricity: 0.0081749 Arg of perigee: 258.8673 deg Mean anomaly: 100.3337 deg Mean motion: 14.73955051 rev/day Decay rate: 1.448e-05 rev/day^2 Epoch rev: 6282 Checksum: 335
Satellite: PUCPSAT-1 Catalog number: 39442 Epoch time: 15021.43655284 Element set: 368 Inclination: 097.7558 deg RA of node: 094.7999 deg Eccentricity: 0.0032690 Arg of perigee: 246.0787 deg Mean anomaly: 113.7004 deg Mean motion: 14.87597429 rev/day Decay rate: 2.233e-05 rev/day^2 Epoch rev: 6204 Checksum: 331
Satellite: SHINAISAT Catalog number: 39572 Epoch time: 14328.13084988 Element set: 447 Inclination: 064.9728 deg RA of node: 197.0096 deg Eccentricity: 0.0013534 Arg of perigee: 259.7861 deg Mean anomaly: 100.1802 deg Mean motion: 16.45181032 rev/day Decay rate: 2.8848087e-01 rev/day^2 Epoch rev: 4240 Checksum: 324
Satellite: TEIKYOSAT Catalog number: 39576 Epoch time: 14297.85867254 Element set: 437 Inclination: 064.9818 deg RA of node: 300.5833 deg Eccentricity: 0.0008491 Arg of perigee: 317.3597 deg Mean anomaly: 044.3862 deg Mean motion: 16.45008906 rev/day Decay rate: 9.345816e-02 rev/day^2 Epoch rev: 3769 Checksum: 359
Satellite: CO-77 Catalog number: 39577 Epoch time: 14244.78324653 Element set: 379 Inclination: 064.9920 deg RA of node: 123.7668 deg Eccentricity: 0.0014904 Arg of perigee: 269.7208 deg Mean anomaly: 091.1897 deg Mean motion: 16.43552757 rev/day Decay rate: 1.0543803e-01 rev/day^2 Epoch rev: 2938 Checksum: 363
Satellite: SPROUT Catalog number: 39770 Epoch time: 15022.02904175 Element set: 259 Inclination: 097.8714 deg RA of node: 120.9252 deg Eccentricity: 0.0009175 Arg of perigee: 325.5746 deg Mean anomaly: 034.4874 deg Mean motion: 14.83338369 rev/day Decay rate: 1.204e-05 rev/day^2 Epoch rev: 3596 Checksum: 307
Satellite: POPSAT-HIP1 Catalog number: 40028 Epoch time: 15022.33506478 Element set: 661 Inclination: 097.9692 deg RA of node: 282.3888 deg Eccentricity: 0.0013664 Arg of perigee: 304.3508 deg Mean anomaly: 055.6358 deg Mean motion: 14.86240215 rev/day Decay rate: 2.334e-05 rev/day^2 Epoch rev: 3211 Checksum: 291
Satellite: EO-80 Catalog number: 40032 Epoch time: 15022.43738504 Element set: 641 Inclination: 097.9634 deg RA of node: 282.3035 deg Eccentricity: 0.0011615 Arg of perigee: 298.9034 deg Mean anomaly: 061.0977 deg Mean motion: 14.85977531 rev/day Decay rate: 2.502e-05 rev/day^2 Epoch rev: 3213 Checksum: 289
Satellite: VELOX-1 Catalog number: 40057 Epoch time: 15022.33075539 Element set: 653 Inclination: 098.2305 deg RA of node: 098.0361 deg Eccentricity: 0.0011412 Arg of perigee: 350.1171 deg Mean anomaly: 009.9783 deg Mean motion: 14.75067270 rev/day Decay rate: 2.215e-05 rev/day^2 Epoch rev: 3037 Checksum: 264
Satellite: DAURIA DX 1 Catalog number: 40071 Epoch time: 15022.38624996 Element set: 623 Inclination: 098.3767 deg RA of node: 087.7122 deg Eccentricity: 0.0008782 Arg of perigee: 354.9686 deg Mean anomaly: 005.1422 deg Mean motion: 14.80026077 rev/day Decay rate: 9.99e-06 rev/day^2 Epoch rev: 2922 Checksum: 314
Satellite: UKUBE-1 Catalog number: 40074 Epoch time: 15022.37849672 Element set: 624 Inclination: 098.3778 deg RA of node: 088.0729 deg Eccentricity: 0.0005115 Arg of perigee: 007.3475 deg Mean anomaly: 352.7794 deg Mean motion: 14.81426084 rev/day Decay rate: 2.162e-05 rev/day^2 Epoch rev: 2924 Checksum: 310
Satellite: CHASQUI-1 Catalog number: 40117 Epoch time: 15014.73322295 Element set: 472 Inclination: 051.6189 deg RA of node: 112.4445 deg Eccentricity: 0.0004239 Arg of perigee: 337.2783 deg Mean anomaly: 022.7551 deg Mean motion: 16.34635278 rev/day Decay rate: 7.508583e-02 rev/day^2 Epoch rev: 2336 Checksum: 296
Satellite: HODOYOSHI-1 Catalog number: 40299 Epoch time: 15022.39525557 Element set: 238 Inclination: 097.4681 deg RA of node: 105.8094 deg Eccentricity: 0.0012176 Arg of perigee: 283.7358 deg Mean anomaly: 144.1244 deg Mean motion: 15.17887091 rev/day Decay rate: 3.695e-05 rev/day^2 Epoch rev: 1168 Checksum: 319
Satellite: CHUBUSAT-1 Catalog number: 40300 Epoch time: 15022.36957990 Element set: 239 Inclination: 097.4663 deg RA of node: 105.5206 deg Eccentricity: 0.0021915 Arg of perigee: 282.3753 deg Mean anomaly: 147.6590 deg Mean motion: 15.15884419 rev/day Decay rate: 4.560e-05 rev/day^2 Epoch rev: 1167 Checksum: 299
Satellite: QSAT-EOS Catalog number: 40301 Epoch time: 15022.43324951 Element set: 260 Inclination: 097.4629 deg RA of node: 105.2816 deg Eccentricity: 0.0033125 Arg of perigee: 280.9541 deg Mean anomaly: 208.0136 deg Mean motion: 15.13900604 rev/day Decay rate: 8.269e-05 rev/day^2 Epoch rev: 1166 Checksum: 257
Satellite: TSUBAME Catalog number: 40302 Epoch time: 15022.00521914 Element set: 245 Inclination: 097.4609 deg RA of node: 104.5492 deg Eccentricity: 0.0043365 Arg of perigee: 283.2748 deg Mean anomaly: 076.3461 deg Mean motion: 15.11159897 rev/day Decay rate: 5.365e-05 rev/day^2 Epoch rev: 1157 Checksum: 282
/EX